Weather History for Thedford, NE

Change the Weather History Date:

Tuesday, January 29, 2013

  Actual Average (KLBF) Record (KLBF)
Temperature  
Mean Temperature 27 °F 26 °F  
Max Temperature 32 °F 40 °F 67 °F (1920)
Min Temperature 22 °F 12 °F -15 °F (1949)
Degree Days  
Heating Degree Days 38 39  
Month to date heating degree days 1161  
Since 1 July heating degree days 3941  
Cooling Degree Days 0 0  
Month to date cooling degree days 0  
Year to date cooling degree days 0  
Moisture  
Dew Point 24 °F    
Average Humidity 87    
Maximum Humidity 94    
Minimum Humidity 78    
Precipitation  
Precipitation 0.01 in 0.01 in 0.49 in (1922)
Month to date precipitation 0.32  
Year to date precipitation 0.32  
Snow  
Snow 0.00 in 0.20 in 4.60 in (1922)
Month to date snowfall 4.5  
Since 1 July snowfall 15.3  
Snow Depth -    
Sea Level Pressure  
Sea Level Pressure 29.73 in    
Wind  
Wind Speed 8 mph (NW)    
Max Wind Speed 22 mph    
Max Gust Speed 29 mph    
Visibility 10 miles    
Events Snow    
T = Trace of Precipitation, MM = Missing Value Source: NWS Daily Summary

Daily Weather History Graph

Daily Weather History Graph

Search for Another Location

Airport:

Trip Planner

Search our weather history database for the weather conditions in past years. The results will help you decide how hot, cold, wet, or windy it might be!

Date:

Astronomy

Jan. 29, 2013 Rise Set
Actual Time 7:57 AM CST 5:53 PM CST
Civil Twilight 7:27 AM CST 6:23 PM CST
Nautical Twilight 6:54 AM CST 6:57 PM CST
Astronomical Twilight 6:21 AM CST 7:30 PM CST
Moon 8:55 PM CST (1/29) 8:52 AM CST (1/29)
Length of Visible Light 10h 55m
Length of Day
9h 56m
Waning Gibbous, 93% of the Moon is Illuminated
Jan 29
Waning Gibbous
Feb 3
Last Quarter
Feb 10
New
Feb 17
First Quarter
Feb 25
Full

Hourly Weather History & Observations

Time (CST) Temp. Windchill Dew Point Humidity Pressure Visibility Wind Dir Wind Speed Gust Speed Precip Events Conditions
12:15 AM 29.3 °F 22.3 °F 27.5 °F 93% 29.72 in 10.0 mi NW 6.9 mph - N/A   Overcast
12:35 AM 29.3 °F 19.6 °F 27.5 °F 93% 29.70 in 4.0 mi NW 11.5 mph - N/A Snow Light Snow
12:55 AM 28.8 °F 20.2 °F 27.0 °F 93% 29.69 in 4.0 mi NW 9.2 mph - N/A Snow Light Snow
1:15 AM 28.4 °F 20.4 °F 26.6 °F 93% 29.71 in 10.0 mi NW 8.1 mph - N/A   Mostly Cloudy
1:35 AM 28.4 °F 22.2 °F 26.4 °F 92% 29.71 in 10.0 mi WNW 5.8 mph - N/A   Overcast
1:55 AM 27.7 °F 21.3 °F 25.5 °F 92% 29.71 in 10.0 mi NW 5.8 mph - N/A   Mostly Cloudy
2:15 AM 27.5 °F 22.2 °F 25.5 °F 92% 29.72 in 10.0 mi NW 4.6 mph - N/A   Scattered Clouds
2:35 AM 26.6 °F 21.2 °F 24.6 °F 92% 29.71 in 10.0 mi WNW 4.6 mph - N/A   Clear
2:55 AM 25.0 °F 19.3 °F 23.2 °F 93% 29.69 in 10.0 mi NW 4.6 mph - N/A   Clear
3:15 AM 23.7 °F 17.8 °F 22.1 °F 94% 29.69 in 10.0 mi NW 4.6 mph - N/A   Scattered Clouds
3:35 AM 22.3 °F 13.9 °F 20.5 °F 93% 29.71 in 10.0 mi WNW 6.9 mph - N/A   Mostly Cloudy
3:55 AM 22.8 °F 18.2 °F 21.0 °F 93% 29.71 in 10.0 mi WNW 3.5 mph - N/A   Overcast
4:15 AM 22.3 °F 16.1 °F 20.5 °F 93% 29.71 in 10.0 mi WNW 4.6 mph - N/A   Mostly Cloudy
4:35 AM 24.8 °F - 23.0 °F 93% 29.71 in 10.0 mi Calm Calm - N/A   Overcast
4:55 AM 25.2 °F 20.9 °F 23.4 °F 93% 29.71 in 10.0 mi WNW 3.5 mph - N/A   Overcast
5:15 AM 26.2 °F - 24.4 °F 93% 29.71 in 10.0 mi Calm Calm - N/A   Overcast
5:35 AM 26.2 °F - 24.4 °F 93% 29.71 in 10.0 mi Calm Calm - N/A   Overcast
5:55 AM 25.5 °F 19.9 °F 23.9 °F 94% 29.71 in 10.0 mi WNW 4.6 mph - N/A   Scattered Clouds
6:15 AM 25.7 °F 18.0 °F 23.9 °F 93% 29.69 in 10.0 mi NW 6.9 mph - N/A   Scattered Clouds
6:35 AM 25.2 °F 18.3 °F 23.0 °F 91% 29.69 in 10.0 mi NNW 5.8 mph - N/A   Scattered Clouds
6:55 AM 23.9 °F 18.0 °F 21.9 °F 92% 29.69 in 10.0 mi NW 4.6 mph - N/A   Clear
7:15 AM 23.4 °F 16.2 °F 21.6 °F 93% 29.69 in 10.0 mi West 5.8 mph - N/A   Scattered Clouds
7:35 AM 23.9 °F 16.8 °F 22.1 °F 93% 29.70 in 10.0 mi WNW 5.8 mph - N/A   Mostly Cloudy
7:55 AM 23.0 °F 15.8 °F 21.2 °F 93% 29.71 in 10.0 mi West 5.8 mph - N/A   Mostly Cloudy
8:15 AM 22.8 °F - 21.0 °F 93% 29.70 in 10.0 mi Calm Calm - N/A   Mostly Cloudy
8:35 AM 22.5 °F - 20.5 °F 92% 29.69 in 10.0 mi Calm Calm - N/A   Mostly Cloudy
8:55 AM 23.5 °F 19.1 °F 21.7 °F 93% 29.71 in 10.0 mi West 3.5 mph - N/A   Mostly Cloudy
9:15 AM 24.8 °F 19.1 °F 22.8 °F 92% 29.72 in 10.0 mi West 4.6 mph - N/A   Overcast
9:35 AM 25.5 °F - 23.0 °F 90% 29.72 in 10.0 mi Calm Calm - N/A   Overcast
9:55 AM 26.2 °F 22.1 °F 23.9 °F 91% 29.72 in 10.0 mi West 3.5 mph - N/A   Overcast
10:15 AM 26.6 °F 21.2 °F 24.1 °F 90% 29.72 in 10.0 mi West 4.6 mph - N/A   Overcast
10:35 AM 27.0 °F 20.5 °F 24.3 °F 90% 29.72 in 10.0 mi WNW 5.8 mph - N/A   Overcast
10:55 AM 27.0 °F 21.6 °F 24.3 °F 90% 29.72 in 10.0 mi WNW 4.6 mph - N/A   Overcast
11:15 AM 28.0 °F 20.8 °F 25.2 °F 89% 29.72 in 10.0 mi WNW 6.9 mph - N/A   Overcast
11:35 AM 29.3 °F 24.3 °F 25.7 °F 86% 29.72 in 10.0 mi NW 4.6 mph - N/A   Overcast
11:55 AM 30.0 °F 24.1 °F 25.7 °F 84% 29.72 in 10.0 mi NW 5.8 mph - N/A   Overcast
12:15 PM 30.6 °F 23.1 °F 26.1 °F 83% 29.71 in 10.0 mi NNW 8.1 mph - N/A   Overcast
12:35 PM 30.9 °F 22.8 °F 26.2 °F 83% 29.71 in 10.0 mi NNW 9.2 mph - N/A   Overcast
12:55 PM 30.9 °F 24.3 °F 26.4 °F 83% 29.71 in 10.0 mi NNW 6.9 mph - N/A   Overcast
1:15 PM 31.5 °F 22.3 °F 26.6 °F 82% 29.71 in 10.0 mi NNW 11.5 mph - N/A   Overcast
1:35 PM 31.6 °F 22.6 °F 26.4 °F 81% 29.69 in 10.0 mi NNW 11.5 mph - N/A   Overcast
1:55 PM 32.0 °F 23.0 °F 27.0 °F 82% 29.69 in 10.0 mi North 11.5 mph 16.1 mph N/A   Mostly Cloudy
2:15 PM 32.0 °F 22.1 °F 26.2 °F 79% 29.67 in 10.0 mi NNW 13.8 mph - N/A   Mostly Cloudy
2:35 PM 32.0 °F 21.6 °F 26.4 °F 80% 29.66 in 10.0 mi North 15.0 mph - N/A   Overcast
2:55 PM 32.0 °F 23.0 °F 26.6 °F 80% 29.67 in 10.0 mi North 11.5 mph 19.6 mph N/A   Overcast
3:15 PM 32.0 °F 22.5 °F 26.8 °F 81% 29.68 in 10.0 mi North 12.7 mph 17.3 mph N/A   Overcast
3:35 PM 32.0 °F 22.1 °F 27.0 °F 82% 29.67 in 10.0 mi North 13.8 mph - N/A   Overcast
3:55 PM 32.0 °F 23.0 °F 27.1 °F 82% 29.69 in 10.0 mi North 11.5 mph - N/A   Overcast
4:15 PM 32.0 °F 22.5 °F 27.3 °F 83% 29.71 in 10.0 mi NNW 12.7 mph - N/A   Overcast
4:35 PM 32.0 °F 23.0 °F 27.0 °F 82% 29.72 in 10.0 mi North 11.5 mph - N/A   Overcast
4:55 PM 32.0 °F 22.5 °F 26.6 °F 80% 29.73 in 10.0 mi North 12.7 mph - N/A   Overcast
5:15 PM 32.0 °F 23.6 °F 26.6 °F 80% 29.73 in 10.0 mi North 10.4 mph - N/A   Overcast
5:35 PM 31.5 °F 23.5 °F 26.8 °F 83% 29.74 in 10.0 mi NNW 9.2 mph - N/A   Overcast
5:55 PM 31.1 °F 24.5 °F 26.6 °F 83% 29.76 in 10.0 mi NNW 6.9 mph - N/A   Overcast
6:15 PM 30.7 °F 22.6 °F 26.2 °F 83% 29.76 in 10.0 mi NNW 9.2 mph - N/A   Overcast
6:35 PM 29.8 °F 20.9 °F 25.0 °F 82% 29.76 in 10.0 mi NNW 10.4 mph - N/A   Mostly Cloudy
6:55 PM 28.8 °F 18.4 °F 24.1 °F 83% 29.77 in 10.0 mi NNW 12.7 mph - N/A   Scattered Clouds
7:15 PM 28.0 °F 17.0 °F 22.6 °F 80% 29.78 in 10.0 mi NW 13.8 mph - N/A   Scattered Clouds
7:35 PM 27.3 °F 16.1 °F 21.2 °F 78% 29.79 in 10.0 mi NNW 13.8 mph 19.6 mph N/A   Clear
7:55 PM 26.6 °F 14.3 °F 21.2 °F 80% 29.79 in 10.0 mi NNW 16.1 mph - N/A   Clear
8:15 PM 25.7 °F 13.5 °F 20.8 °F 82% 29.80 in 10.0 mi NNW 15.0 mph - N/A   Clear
8:35 PM 25.5 °F 14.3 °F 20.7 °F 82% 29.80 in 10.0 mi NNW 12.7 mph 20.7 mph N/A   Clear
8:55 PM 24.8 °F 13.4 °F 20.3 °F 83% 29.81 in 10.0 mi NNW 12.7 mph - N/A   Clear
9:15 PM 25.3 °F 13.6 °F 21.2 °F 84% 29.82 in 10.0 mi NNW 13.8 mph - N/A   Mostly Cloudy
9:35 PM 26.2 °F 13.8 °F 22.3 °F 85% 29.82 in 10.0 mi NNW 16.1 mph - N/A   Overcast
9:55 PM 26.8 °F 15.4 °F 22.8 °F 85% 29.82 in 10.0 mi NNW 13.8 mph 21.9 mph N/A   Overcast
10:15 PM 26.6 °F 14.3 °F 23.0 °F 86% 29.82 in 10.0 mi NW 16.1 mph - N/A   Overcast
10:35 PM 27.0 °F 14.7 °F 23.0 °F 85% 29.83 in 10.0 mi NNW 16.1 mph 24.2 mph N/A   Overcast
10:55 PM 27.5 °F 13.5 °F 23.5 °F 85% 29.82 in 10.0 mi NNW 21.9 mph 26.5 mph N/A   Overcast
11:15 PM 27.5 °F 15.0 °F 23.9 °F 86% 29.83 in 10.0 mi NNW 17.3 mph 25.3 mph N/A   Overcast
11:35 PM 27.9 °F 15.5 °F 24.3 °F 86% 29.83 in 10.0 mi NNW 17.3 mph 25.3 mph N/A   Overcast
11:55 PM 28.0 °F 14.6 °F 24.8 °F 88% 29.84 in 10.0 mi North 20.7 mph 28.8 mph N/A   Overcast